CAPE
691 1163 2220 2383 2272 2233 1916 2043 2221 2064 1836 2433 1824 1762 2008 1575 1305 1343 1393 1328 1416 1240 1237 1299 1308 1245 1337 1222 1291 1491 1508 1565 1694 1659 1675 1671 1776 2345 2205 1805 2176 2089 2549
659 1102 2061 2492 2522 1880 1639 2212 2031 2276 1929 1880 1694 1550 2112 1956 1259 1162 1426 1084 1009 900 846 922 1021 1200 1185 1084 1155 1376 1153 1444 1460 1321 1625 1656 1710 1632 1830 1864 2168 2351 2445
571 804 1247 2409 2327 1667 1838 2140 2028 2032 1449 1110 1698 1206 1332 1040 830 811 680 655 711 690 637 524 390 301 325 372 633 793 958 995 1051 1412 1332 1312 1317 1521 1812 1513 2117 2324 2202
398 451 951 2252 2267 1864 1771 2013 1937 1719 1066 1024 1088 1023 960 676 399 287 271 271 222 203 208 190 173 168 208 316 395 337 367 577 775 841 721 1009 489 1620 1745 1996 2017 2141 2075
426 315 1140 2353 2236 1697 1807 1805 1710 1480 1115 1112 863 799 654 559 479 436 392 324 212 156 156 194 268 341 372 381 311 261 313 350 354 550 693 509 81 767 1646 1805 1731 1819 1868
190 537 1923 2095 1468 1419 1522 1823 1594 1457 1460 1369 770 589 573 374 254 216 276 448 580 733 691 645 579 620 740 837 810 772 638 587 534 319 354 683 288 699 1952 1661 1586 1300 1824
394 707 1344 2060 2020 1903 1733 1536 1415 1479 1213 854 597 548 556 775 773 700 847 984 851 695 703 723 715 767 883 915 964 1495 1646 1463 1315 891 390 383 758 2077 2355 2211 2580 2152 1459
741 909 1223 1881 2126 1955 1373 1146 977 815 665 597 616 576 822 891 860 912 822 769 734 756 814 846 908 1018 1170 1346 1635 2263 2193 1766 1328 844 1309 849 926 1921 2351 2671 2594 2484 1995
615 631 812 942 964 1270 1221 1108 979 892 771 634 672 1123 1073 971 1012 996 1171 1387 779 734 692 859 1171 1437 1680 2215 2542 2713 2083 2152 1822 1277 1290 894 1517 1027 2367 2603 2495 2211 1847
131 240 476 711 842 910 1023 1889 1757 1273 965 1254 1116 844 884 1049 971 1055 1683 1883 1336 1259 1413 1593 1860 2459 2674 3030 2652 2949 2349 1740 1164 451 652 902 1389 1647 2294 2783 2489 2346 1148
291 463 674 902 809 556 629 1083 2049 1251 1147 1034 950 1228 1577 887 571 710 1464 2127 2354 1829 2017 2370 3009 2997 3394 2203 1849 749 977 1579 382 144 21 627 1389 2257 2804 2784 2664 2498 1518
61 180 302 517 710 579 433 567 980 729 442 586 730 618 605 815 915 875 1307 2675 2853 2960 3084 2958 1611 1841 3080 1312 88 252 547 1145 270 129 201 273 1104 1884 2665 2546 2649 2616 1958
31 181 51 87 242 465 358 208 230 84 434 703 751 800 916 1470 1920 1934 1462 2107 1947 2490 2221 1947 1394 1004 1570 749 296 226 504 887 836 838 431 808 1678 1897 2565 2438 2203 2244 2189
0 10 49 164 194 394 453 174 218 367 329 645 978 934 813 1844 1849 1805 1491 1351 918 479 411 611 968 1598 1447 622 505 468 889 1024 558 483 885 1870 2219 2049 2411 1985 2038 2041 2289
0 0 0 133 606 545 384 401 251 278 432 657 430 753 1327 1739 1826 1924 1823 1260 560 623 779 1008 1638 1269 1185 661 574 742 748 659 641 645 898 2489 2640 1864 2047 1656 1554 1785 1795
0 0 245 289 567 580 253 501 207 273 383 824 975 1336 1249 1517 2190 1946 1163 1352 1008 1125 1172 1227 749 505 1330 1269 536 765 613 869 691 627 1327 2111 2344 2056 1997 1548 1372 1418 1603
0 383 411 451 427 626 708 348 653 963 1172 811 1338 1526 1707 1857 1776 1512 1058 669 266 561 827 1657 843 864 811 746 476 862 951 998 759 1004 1372 1706 2053 2357 1832 1573 1471 1369 1238
0 200 522 692 384 608 675 306 788 1223 1106 1109 1022 1935 1780 1620 2212 1578 1055 78 159 705 1340 1340 1299 861 35 270 988 1322 1086 1024 1277 1345 1297 1267 1153 1241 1677 1615 1647 971 198
0 6 137 299 338 524 385 1262 1118 1565 1227 1289 1124 1169 1666 1897 1564 2018 1321 919 690 704 1787 1328 1079 253 745 850 1146 1539 941 1021 1405 1488 1449 1310 1433 1077 945 1555 399 165 116
579 52 35 209 318 533 1320 1716 1738 1463 1043 1192 1233 1053 1689 1302 531 1133 1815 1235 844 1067 1423 2026 1927 1390 1471 1459 1425 1773 1154 1241 1508 1559 1466 1340 1350 1336 697 555 280 239 359
724 457 479 314 419 864 1671 1381 1307 1031 1406 1151 780 1767 1416 945 946 1337 1713 882 1114 1832 2282 1843 1817 1798 1675 1805 1536 1457 919 1246 1526 1195 1261 1195 1077 815 697 733 290 132 165
696 921 323 1418 1075 1149 1526 1231 1101 973 1176 1244 1002 1626 1325 1550 1609 2702 1688 1526 1899 1528 1149 955 632 665 1650 2011 1990 1137 981 661 1268 1220 1082 1347 1260 1161 624 337 96 0 16
783 1149 966 1797 1614 1545 1542 1687 1693 1778 1402 1189 1499 2181 1874 1864 2039 1848 916 1753 2755 1866 1227 21 0 299 897 1962 2017 1760 951 667 882 1145 1080 1196 1597 1136 644 216 186 0 0
964 1053 1321 2000 1713 1534 1532 2061 1878 1291 883 1011 769 1312 1962 2086 1968 2352 1329 2447 2883 2086 1212 619 361 732 1335 1763 2051 2269 1800 1223 542 789 1154 1225 1375 1083 550 398 240 1 0
888 1202 1338 1643 2369 1862 1794 2272 1833 2101 1286 1630 1760 1663 1978 2299 2068 2688 2155 1977 2426 2369 1862 1454 1594 1539 1993 2453 2309 2057 1985 1385 929 234 167 1115 1059 630 561 519 116 2 0
849 1056 1489 1462 1785 2274 1973 2099 2163 2668 1322 1240 2277 2055 2910 2477 2642 2344 1975 2834 3119 2991 2513 2668 2695 2887 2857 2788 2397 2251 2395 1740 1266 922 860 960 649 495 596 481 163 13 0
CIN
-0 -1 -0 -0 -0 -0 -0 -0 -0 -0 -0 -0 -0 -0 -0 -0 -0 -0 -0 -0 -0 -0 -0 -0 -0 -5 -9 -17 -13 -8 -8 -4 -1 -2 -3 -4 -1 -0 -0 -0 -0 -0 -0
-7 -1 -0 -0 -0 -0 -0 -0 -0 -0 -0 -0 -0 -0 -0 -0 -0 -0 -0 -0 -0 -2 -12 -9 -8 -7 -11 -14 -12 -7 -22 -10 -4 -10 -7 -4 -2 -11 -5 -4 -1 -0 -0
-20 -2 -0 -0 -0 -0 -0 -0 -0 -0 -0 -0 -0 -0 -0 -0 -0 -0 -3 -7 -10 -13 -21 -32 -49 -61 -82 -82 -49 -40 -29 -24 -20 -10 -8 -16 -13 -4 -2 -9 -1 -0 -0
-53 -13 -3 -0 -0 -0 -0 -0 -0 -0 -0 -0 -0 -0 -0 -2 -16 -33 -33 -35 -44 -51 -59 -69 -81 -91 -91 -113 -78 -75 -64 -48 -31 -23 -35 -38 -122 -14 -1 -0 -2 -0 -0
-40 -33 -1 -0 -0 -0 -0 -0 -0 -0 -0 -0 -0 -2 -10 -11 -14 -20 -27 -32 -47 -67 -80 -84 -65 -63 -62 -65 -75 -91 -64 -60 -61 -39 -22 -55 -49 -56 -8 -3 -5 -0 -0
-80 -23 -0 -0 -0 -0 -0 -0 -0 -0 -0 -0 -4 -22 -22 -39 -53 -57 -46 -29 -23 -14 -20 -27 -28 -35 -26 -21 -26 -35 -42 -54 -62 -55 -19 -85 -28 -75 -9 -10 -18 -26 -4
-85 -32 -0 -0 -0 -0 -0 -0 -0 -0 -0 -8 -27 -30 -32 -23 -24 -20 -10 -8 -21 -29 -37 -38 -34 -25 -28 -30 -32 -3 -4 -23 -36 -56 -33 -11 -82 -13 -12 -6 -0 -1 -5
-101 -28 -2 -0 -0 -0 -0 -2 -3 -4 -19 -28 -34 -40 -33 -31 -28 -23 -30 -40 -43 -43 -43 -38 -33 -29 -25 -19 -10 -0 -0 -3 -22 -24 -40 -67 -58 -31 -25 -7 -1 -0 -1
-113 -86 -39 -22 -16 -3 -4 -7 -23 -30 -33 -43 -47 -30 -39 -42 -38 -39 -34 -30 -54 -58 -67 -67 -54 -33 -16 -0 -0 -0 -4 -3 -28 -50 -25 -90 -61 -73 -18 -11 -9 -6 -11
-181 -141 -100 -68 -43 -37 -31 -0 -2 -24 -38 -25 -37 -53 -59 -56 -57 -53 -37 -32 -42 -52 -50 -43 -44 -10 -2 -0 -4 -1 -26 -5 -20 -60 -39 -38 -72 -66 -26 -5 -11 -7 -47
-108 -109 -88 -68 -76 -77 -76 -49 -7 -36 -39 -46 -54 -43 -48 -90 -29 -73 -65 -44 -31 -57 -61 -51 -19 -10 -5 -17 -9 -18 -34 -35 -261 -247 -41 -66 -40 -45 -23 -6 -4 -3 -37
-218 -113 -104 -93 -75 -75 -79 -95 -86 -90 -94 -95 -85 -23 -74 -36 -24 -92 -95 -40 -28 -27 -34 -39 -27 -46 -11 -40 -275 -40 -52 -101 -185 -70 -54 -17 -13 -7 -12 -2 -0 -0 -21
-189 -87 -179 -132 -46 -41 -92 -193 -110 -209 -22 -27 -32 -27 -91 -39 -45 -46 -65 -35 -45 -55 -64 -95 -33 -80 -48 -122 -46 -35 -64 -118 -140 -122 -80 -83 -20 -19 -14 -21 -18 -10 -1
-0 -156 -180 -124 -107 -67 -71 -241 -175 -58 -48 -40 -68 -50 -56 -57 -47 -49 -32 -35 -41 -226 -162 -93 -33 -103 -34 -63 -29 -62 -90 -96 -188 -165 -127 -37 -28 -39 -27 -39 -27 -8 -0
-0 -0 -0 -190 -53 -92 -89 -113 -116 -113 -75 -41 -99 -107 -90 -64 -47 -56 -34 -20 -50 -28 -20 -15 -25 -36 -48 -148 -142 -186 -27 -24 -35 -46 -109 -60 -44 -52 -37 -44 -35 -9 -0
-0 -0 -191 -149 -66 -79 -157 -79 -135 -111 -119 -50 -71 -78 -53 -23 -29 -41 -37 -39 -54 -52 -36 -54 -54 -70 -63 -31 -44 -33 -41 -95 -16 -36 -117 -68 -44 -45 -33 -37 -32 -9 -2
-0 -161 -160 -144 -130 -87 -97 -120 -59 -58 -19 -39 -43 -42 -48 -33 -34 -10 -30 -97 -70 -30 -19 -81 -24 -79 -43 -32 -11 -12 -23 -40 -14 -95 -140 -118 -63 -29 -48 -39 -28 -20 -11
-0 -246 -153 -90 -176 -120 -117 -189 -92 -63 -21 -43 -6 -18 -25 -24 -25 -22 -41 -327 -68 -5 -122 -51 -42 -26 -25 -27 -18 -20 -89 -65 -98 -101 -136 -162 -143 -108 -53 -38 -11 -20 -55
-0 -368 -275 -202 -212 -158 -195 -79 -86 -56 -44 -34 -57 -42 -96 -22 -12 -54 -60 -60 -43 -3 -68 -65 -27 -32 -21 -29 -14 -21 -20 -66 -97 -116 -100 -130 -99 -65 -101 -40 -52 -81 -75
-191 -311 -397 -300 -251 -200 -99 -41 -47 -29 -27 -65 -56 -12 -40 -22 -28 -5 -25 -30 -20 -116 -58 -45 -25 -24 -25 -28 -41 -60 -76 -56 -72 -95 -67 -66 -67 -93 -61 -38 -67 -94 -47
-191 -262 -243 -317 -278 -182 -52 -60 -47 -47 -31 -75 -19 -50 -120 -8 -12 -4 -74 -148 -8 -26 -29 -33 -37 -34 -30 -39 -76 -59 -39 -26 -74 -88 -99 -5 -77 -20 -44 -33 -113 -126 -95
-213 -178 -308 -124 -190 -140 -55 -93 -80 -61 -32 -40 -34 -60 -138 -16 -24 -45 -32 -20 -16 -7 -9 -29 -26 -103 -77 -21 -28 -29 -23 -7 -19 -40 -20 -5 -9 -5 -59 -54 -147 -0 -140
-209 -168 -220 -94 -109 -87 -64 -59 -43 -19 -29 -22 -62 -45 -53 -49 -33 -7 -9 -6 -25 -16 -10 -23 -0 -81 -45 -39 -26 -11 -15 -19 -31 -32 -13 -6 -9 -8 -17 -49 -37 -0 -0
-178 -154 -137 -89 -107 -98 -70 -36 -24 -28 -56 -39 -35 -60 -63 -36 -48 -30 -30 -34 -27 -10 -13 -145 -44 -21 -22 -42 -26 -51 -32 -18 -56 -21 -23 -10 -8 -16 -23 -17 -63 -27 -0
-167 -139 -141 -94 -89 -77 -94 -66 -56 -34 -86 -66 -36 -44 -108 -51 -91 -33 -48 -52 -58 -12 -11 -11 -21 -44 -30 -31 -26 -35 -34 -20 -28 -92 -146 -34 -24 -45 -22 -3 -61 -109 -0
-162 -131 -108 -144 -115 -99 -106 -86 -54 -27 -47 -88 -42 -62 -29 -34 -31 -70 -59 -57 -26 -24 -24 -12 -11 -23 -22 -26 -27 -34 -28 -14 -16 -31 -37 -9 -45 -50 -37 -8 -34 -66 -0
Wind_Speed
5 7 10 11 9 6 3 3 1 1 0 3 2 1 2 3 5 6 9 10 11 11 9 7 5 4 3 3 3 3 3 4 5 8 10 12 13 12 10 12 21 17 20
10 7 11 11 9 7 4 2 2 2 1 1 2 3 3 4 7 8 7 8 8 9 9 7 6 6 8 8 7 6 6 5 6 6 8 8 10 11 10 12 20 19 22
9 7 8 11 9 7 4 3 3 2 3 5 4 4 4 5 6 6 8 9 10 10 10 10 10 10 10 11 10 8 6 6 7 6 7 10 9 12 15 18 22 23 23
9 8 9 12 9 8 7 5 4 3 4 4 5 5 6 8 9 9 10 11 11 12 11 10 10 10 11 11 9 6 5 9 8 11 9 9 7 16 18 17 21 29 23
10 9 11 10 7 8 8 6 7 7 7 8 6 7 8 9 12 12 12 15 19 21 20 20 19 18 17 17 18 15 12 9 10 15 16 12 nan 15 21 22 25 35 22
8 8 10 10 10 9 9 9 9 10 11 10 9 10 10 10 14 17 17 16 20 19 19 20 19 22 21 21 20 18 14 17 21 20 23 26 19 26 30 35 28 34 13
7 8 9 11 11 10 9 10 11 11 12 11 11 11 11 15 18 20 20 21 23 21 22 22 22 20 18 21 20 20 21 22 18 13 19 25 24 29 32 28 30 28 27
12 8 9 12 12 11 12 11 11 12 12 13 15 16 18 19 20 22 23 25 24 23 24 23 19 17 23 25 21 17 18 19 17 16 28 17 21 25 28 32 30 32 26
12 9 6 8 10 13 12 12 13 15 15 16 19 21 21 22 23 25 26 25 25 26 24 22 22 26 23 23 20 20 15 20 16 22 22 20 29 29 32 36 32 29 30
13 11 10 9 8 8 9 12 13 15 18 19 21 21 22 23 23 26 25 26 26 26 26 25 26 24 28 19 27 24 28 18 24 21 23 27 37 39 38 36 34 32 29
11 11 9 8 9 9 8 11 14 19 19 21 21 22 21 16 18 26 25 28 32 33 30 30 31 27 22 18 14 21 18 23 21 16 nan 30 34 42 40 40 39 36 33
nan 13 10 10 9 8 9 9 11 13 12 13 14 15 16 14 19 24 27 28 27 29 28 28 4 32 17 7 nan 41 23 27 24 29 24 43 37 45 45 45 42 39 36
nan 13 nan nan 9 10 9 7 8 nan 10 10 12 12 10 13 19 18 15 13 11 17 19 22 26 19 18 25 33 26 27 18 30 28 38 53 56 57 49 44 36 37 39
nan nan nan 9 9 10 6 5 7 8 10 9 11 12 10 11 12 12 8 10 14 12 15 20 16 19 20 23 21 23 25 29 26 28 36 47 53 51 44 37 33 35 39
nan nan nan 2 3 2 1 2 4 7 8 11 10 11 10 10 11 12 10 12 11 14 15 16 20 17 26 27 25 25 26 29 29 30 31 47 45 41 42 37 31 31 35
nan nan 7 3 5 3 3 2 1 2 6 11 11 12 12 11 10 6 7 7 10 14 18 19 21 21 26 20 17 22 22 28 26 26 26 30 36 38 39 38 36 31 31
nan 12 8 5 5 3 2 0 1 2 3 5 8 15 14 12 10 11 8 11 13 12 13 16 14 17 10 11 14 15 18 20 20 22 23 26 31 39 39 38 38 37 31
nan 14 13 9 6 5 3 3 1 3 4 6 10 12 14 11 6 9 6 nan 14 10 16 11 9 9 nan 8 4 11 9 11 16 21 23 26 32 32 37 40 38 36 33
nan nan 9 8 10 8 6 5 5 5 6 8 9 11 12 12 12 11 10 10 10 10 11 12 12 7 9 5 5 8 7 12 18 19 22 28 31 30 30 37 38 37 35
6 nan nan 7 8 7 5 5 5 5 6 9 11 11 12 7 8 12 8 2 8 12 15 15 13 8 10 7 2 6 2 13 11 14 19 23 25 30 30 31 32 34 38
7 8 9 9 9 7 5 5 6 7 9 7 9 16 15 11 8 9 8 8 10 11 14 10 4 2 7 7 5 4 4 11 13 16 20 21 24 29 31 29 29 30 32
8 6 8 10 13 9 9 7 6 5 6 9 8 12 12 10 8 6 9 8 12 15 10 12 7 12 3 6 7 5 6 5 4 11 18 21 23 25 27 29 nan nan nan
11 9 10 10 12 13 15 11 9 7 5 5 7 6 8 11 10 9 7 9 11 14 13 nan nan 8 6 8 8 13 7 10 9 13 15 19 23 23 27 29 30 nan nan
14 13 11 10 13 13 15 12 11 8 6 4 5 5 7 9 7 8 9 9 13 16 17 3 8 9 11 9 6 10 13 15 17 12 16 22 24 24 24 24 29 nan nan
19 18 15 13 14 13 13 13 10 6 4 2 3 7 6 6 6 7 9 11 11 17 16 19 14 14 14 10 11 8 10 9 12 15 14 19 20 20 25 26 28 nan nan
19 19 19 18 15 15 16 12 11 7 5 1 1 3 3 4 6 8 11 11 11 11 18 15 17 14 13 12 9 8 10 13 12 12 12 16 22 22 26 31 32 nan nan
Wind_Direction
34 21 339 342 334 313 314 313 269 285 152 188 203 311 356 334 333 351 359 5 3 4 11 15 20 21 46 39 41 30 4 349 326 322 330 330 330 333 330 331 323 319 315
349 10 344 348 337 326 337 308 304 19 287 6 356 355 4 14 8 9 15 12 16 16 15 16 9 16 17 22 20 15 28 8 346 328 334 323 326 325 322 331 331 333 319
340 8 358 352 347 347 359 10 37 21 24 12 14 13 17 31 27 19 23 22 16 8 9 6 8 16 19 20 20 15 14 17 10 6 4 356 354 338 339 335 329 329 322
353 38 22 4 2 22 50 53 64 56 37 24 29 24 37 35 23 27 32 29 25 27 23 21 21 32 37 34 36 41 39 47 24 5 353 348 24 6 354 342 341 322 309
16 48 38 8 17 22 43 52 54 55 50 57 56 50 44 40 38 45 42 49 56 57 55 55 57 59 59 51 47 58 78 73 54 48 34 8 nan 25 6 349 329 339 293
10 48 39 16 18 23 32 44 50 60 61 59 57 51 44 53 50 49 54 55 53 52 54 58 57 55 54 59 61 71 81 79 76 68 43 28 37 54 29 31 22 13 354
4 39 45 24 22 24 38 42 53 57 60 60 57 61 52 49 56 60 57 56 56 55 58 54 55 57 57 56 54 58 57 66 70 78 61 52 48 28 19 28 20 15 16
341 22 37 19 24 27 30 39 44 49 56 59 63 64 59 58 58 58 58 59 58 57 57 63 63 65 64 58 55 53 55 61 68 45 59 55 45 36 16 26 27 12 8
342 4 27 41 37 25 37 43 41 41 47 52 56 57 61 62 64 62 62 62 59 57 57 58 59 58 65 58 66 67 60 74 76 67 67 50 39 38 24 26 24 18 14
345 1 25 38 56 62 69 43 43 42 46 50 54 59 61 63 64 66 61 59 53 51 53 57 47 50 47 57 55 70 52 89 72 78 87 52 42 33 28 25 22 17 18
345 1 9 32 46 66 72 52 37 41 45 50 54 60 61 61 60 58 51 51 54 46 43 42 50 48 59 86 124 92 88 58 60 48 nan 63 45 30 23 25 26 20 17
nan 3 13 25 41 56 49 46 45 50 54 54 57 50 56 58 59 55 50 54 51 40 41 43 154 67 10 9 nan 77 60 52 61 53 53 62 63 39 30 30 29 23 17
nan 354 nan nan 27 33 53 45 55 nan 56 50 46 43 45 46 48 42 45 43 31 45 26 27 15 22 348 356 45 49 51 52 56 49 41 47 46 37 31 30 31 28 21
nan nan nan 11 17 29 44 41 46 47 36 22 28 20 32 41 56 52 35 30 38 22 33 29 28 15 359 25 48 58 46 43 47 48 41 43 36 38 37 35 29 21 20
nan nan nan 304 236 233 64 55 37 12 355 0 8 8 16 23 40 45 12 24 20 16 29 32 38 14 5 21 37 51 49 54 42 47 41 33 34 34 36 35 26 18 20
nan nan 328 312 276 245 187 244 43 56 5 340 345 353 7 356 16 348 343 21 28 29 29 20 7 10 24 30 26 43 39 45 44 37 37 35 29 34 33 30 29 25 25
nan 323 324 299 296 274 245 270 109 63 3 322 336 340 354 351 19 332 24 354 29 32 45 37 8 18 42 16 35 42 41 30 27 22 22 26 27 24 23 22 23 26 25
nan 329 334 332 323 319 342 3 23 56 345 328 317 338 333 351 9 328 343 nan 2 342 36 28 13 360 nan 42 40 78 39 3 352 11 18 15 22 20 18 15 16 16 15
nan nan 347 328 334 343 10 26 24 38 9 340 334 329 332 331 6 340 4 2 349 345 8 6 17 9 35 60 73 78 4 360 352 7 10 18 15 12 14 6 10 13 12
345 nan nan 348 353 359 7 29 46 32 21 356 353 334 320 346 3 328 10 343 329 353 12 11 351 341 25 31 96 118 0 338 339 1 7 14 5 3 2 8 8 11 9
345 346 344 348 10 355 4 25 45 31 14 11 3 338 342 0 347 340 347 356 350 348 344 311 318 36 1 27 319 216 250 306 340 353 7 10 2 358 354 360 5 2 3
340 345 346 342 354 357 354 15 1 13 10 350 351 337 347 348 346 358 333 358 332 310 299 307 287 329 31 6 347 284 249 249 316 350 5 354 355 355 345 349 nan nan nan
329 338 345 341 348 345 348 346 345 342 299 291 319 342 345 348 331 2 1 341 308 301 312 nan nan 355 40 33 357 332 329 340 325 339 357 342 341 347 349 351 350 nan nan
327 327 330 327 349 348 343 331 340 335 333 4 10 10 17 5 358 352 354 349 327 310 309 270 60 27 33 21 5 347 346 339 9 343 337 331 326 335 337 348 348 nan nan
316 318 322 323 330 337 330 326 325 328 329 43 53 43 21 351 352 6 346 351 341 319 339 351 9 19 24 351 343 341 325 311 315 335 358 330 328 338 336 337 342 nan nan
314 317 316 319 324 323 328 324 326 333 1 331 197 261 314 331 334 346 354 340 346 342 349 360 17 15 11 359 352 341 342 353 359 349 359 359 340 343 338 344 341 nan nan